[Iaude] MPEC V86: 2023 VO2 [a=1.32,e=0.38,i=21.1,H=26.6]
    mpec at marsden.cfa.harvard.edu 
    mpec at marsden.cfa.harvard.edu
       
    Tue Nov  7 03:18:19 EST 2023
    
    
  
M.P.E.C. 2023-V86                              Issued 2023 November 7, 08:16 UT
     The Minor Planet Electronic Circulars contain information on unusual
         minor planets, routine data on comets and natural satellites,
         and occasional editorial announcements.  They are published
    on behalf of Division F of the International Astronomical Union by the
          Minor Planet Center, Smithsonian Astrophysical Observatory,
                          Cambridge, MA 02138, U.S.A.
			  
             Prepared using the Tamkin Foundation Computer Network
                              MPC at CFA.HARVARD.EDU
            URL https://www.minorplanetcenter.net/    ISSN 1523-6714
                                    2023 VO2                                    
Observations:
     K23V02O*1C2023 11 04.27557101 19 08.281+19 02 16.76         20.66GVEV086G96
     K23V02O 1C2023 11 04.28591101 19 03.428+19 06 27.43         20.37GVEV086G96
     K23V02O 1C2023 11 04.29110001 19 01.031+19 08 33.11         20.52GVEV086G96
     K23V02O KC2023 11 04.39121701 18 15.498+19 48 24.41         20.37GVEV086I52
     K23V02O KC2023 11 04.39251001 18 14.958+19 48 54.36         20.49GVEV086I52
     K23V02O KC2023 11 04.39378901 18 14.411+19 49 24.31         20.41GVEV086I52
     K23V02O KC2023 11 04.39506801 18 13.828+19 49 53.76         20.24GVEV086I52
     K23V02O KC2023 11 05.12124201 14 13.686+24 04 01.27         21.39GVEV086I52
     K23V02O KC2023 11 05.12304501 14 12.948+24 04 35.72         20.99GVEV086I52
     K23V02O KC2023 11 05.12484101 14 12.318+24 05 08.34         20.84GVEV086I52
     K23V02O KC2023 11 05.14271901 14 04.65 +24 10 39.6          20.5 GXEV086858
     K23V02O KC2023 11 05.15196501 14 01.12 +24 13 31.2          21.1 GXEV086858
     K23V02O KC2023 11 05.20235801 13 38.66 +24 28 44.5          20.8 GVEV086H21
     K23V02O KC2023 11 05.20378901 13 38.13 +24 29 10.2          20.8 GVEV086H21
     K23V02O KC2023 11 05.21113501 13 35.37 +24 31 22.7          20.6 GVEV086H21
     K23V02O KC2023 11 07.32734701 04 44.476+32 25 12.47         22.11GVEV086V06
     K23V02O KC2023 11 07.32912001 04 44.065+32 25 29.78         22.02GVEV086V06
     K23V02O KC2023 11 07.33089201 04 43.644+32 25 47.39         22.29GVEV086V06
Observer details:
858 Tebbutt Observatory, Edgewood.  Observer F. B. Zoltowski.  0.51-m f/8.1
    Schmidt-Cassegrain + CCD.
G96 Mt. Lemmon Survey.  Observer J. B. Fazekas.  Measurers E. C. Beshore, D.
    Fay, J. B. Fazekas, D. C. Fuls, A. R. Gibbs, A. D. Grauer, H. Groeller, J.
    K. Hogan, R. A. Kowalski, S. M. Larson, G. J. Leonard, D. Rankin, R. L.
    Seaman, F. C. Shelly, K. W. Wierzchos.  1.5-m reflector + 10K CCD.
H21 Astronomical Research Observatory, Westfield.  Observer R. Holmes.
    Measurers T. Linder, R. Holmes, L. Horn.  0.81-m f/4.0 astrograph + CCD.
I52 Steward Observatory, Mt. Lemmon Station.  Observers D. Rankin, R. A.
    Kowalski.  Measurers E. C. Beshore, D. Fay, J. B. Fazekas, D. C. Fuls, A.
    R. Gibbs, A. D. Grauer, H. Groeller, J. K. Hogan, R. A. Kowalski, S. M.
    Larson, G. J. Leonard, D. Rankin, R. L. Seaman, F. C. Shelly, K. W.
    Wierzchos.  1.0-m prime focus + CCD.
V06 Catalina Sky Survey-Kuiper.  Observer H. Groeller.  Measurers E. C.
    Beshore, D. Fay, J. B. Fazekas, D. C. Fuls, A. R. Gibbs, A. D. Grauer, H.
    Groeller, J. K. Hogan, R. A. Kowalski, S. M. Larson, G. J. Leonard, D.
    Rankin, R. L. Seaman, F. C. Shelly, K. W. Wierzchos.  1.55-m reflector +
    1K CCD.
Orbital elements:
2023 VO2                                                 Earth MOID = 0.0240 AU
Epoch 2023 Sept. 13.0 TT = JDT 2460200.5                MPC                     
M   3.34124              (2000.0)            P               Q                  
n   0.65091078     Peri.  285.13271     +0.77466939     +0.58928663             
a   1.3186263      Node    39.54865     -0.34620648     +0.69880229             
e   0.3801833      Incl.   21.11807     -0.52917710     +0.40548321             
P   1.51           H   26.62          G   0.15           U   7                  
Residuals in seconds of arc
231104 G96  0.5-  1.2+    231104 I52  0.3-  0.3-    231105 H21  0.1-  0.2+
231104 G96  0.3+  1.3-    231105 I52  0.4+  0.2-    231105 H21  0.0   0.0
231104 G96 (1.0+  2.2-)   231105 I52  0.4-  0.3+    231105 H21  0.2+  0.1+
231104 I52  0.1-  0.2+    231105 I52  0.2+  0.9-    231107 V06  0.2-  0.3-
231104 I52  0.1+  0.0     231105 858  0.1-  0.2+    231107 V06  0.0   0.1-
231104 I52  0.2+  0.1+    231105 858  0.3-  0.3-    231107 V06  0.0   0.4+
Ephemeris:
2023 VO2                 a,e,i = 1.32, 0.38, 21                  q = 0.8173
Date    TT    R. A. (2000) Decl.     Delta      r    Elong.  Phase     V
2023 10 08    12 13 58.7 -57 48 39   0.2110  0.8878    52.8   116.3    27.6
...
2023 10 23    11 10 44.3 -69 36 11   0.07971 0.9623    63.5   112.2    25.3
...
2023 10 31    02 21 35.3 -41 30 25   0.02561 1.0078   124.6    54.2    20.7
...
2023 11 06    01 09 50.8 +28 02 41   0.05680 1.0434   155.4    23.3    21.6
2023 11 07    01 05 56.1 +31 28 59   0.06510 1.0494   152.5    25.9    22.0
2023 11 08    01 02 47.3 +34 07 15   0.07363 1.0554   150.1    27.9    22.3
...
2023 11 14    00 53 03.5 +42 04 14   0.1271  1.0920   141.6    34.3    23.8
...
2023 11 22    00 51 37.3 +45 33 31   0.2017  1.1412   135.8    37.1    24.9
...
2023 12 07    01 03 27.3 +47 14 41   0.3484  1.2326   128.5    38.7    26.3
A. U. Tomatic                (C) Copyright 2023 MPC           M.P.E.C. 2023-V86
    
    
More information about the Iaude
mailing list